This is the latest recevied weather packets stored in our database for station/object K5OBH. If no packets are shown the sender has not sent any weather packets the latest 10 day(s).
| Time | Temp. | Humidity | Pressure | Rain* | Wind** | Luminosity | Snow |
|---|---|---|---|---|---|---|---|
| 1777855696 | 25° C | 36% | 1012 hPa | 0 mm | - | 31 W/m² | - |
| 1777855394 | 25° C | 36% | 1011.9 hPa | 0 mm | - | 40 W/m² | - |
| 1777855090 | 25° C | 36% | 1011.8 hPa | 0 mm | - | 44 W/m² | - |
| 1777854787 | 25° C | 34% | 1012 hPa | 0 mm | - | 51 W/m² | - |
| 1777854483 | 25° C | 34% | 1012 hPa | 0 mm | - | 56 W/m² | - |
| 1777854180 | 25° C | 34% | 1012 hPa | 0 mm | - | 61 W/m² | - |
| 1777853878 | 25.56° C | 33% | 1011.9 hPa | 0 mm | - | 52 W/m² | - |
| 1777853575 | 25.56° C | 33% | 1012.1 hPa | 0 mm | - | 48 W/m² | - |
| 1777853272 | 25.56° C | 33% | 1012.1 hPa | 0 mm | - | 57 W/m² | - |
| 1777852968 | 25.56° C | 32% | 1012 hPa | 0 mm | - | 54 W/m² | - |
| 1777852667 | 26.11° C | 32% | 1012.2 hPa | 0 mm | - | 65 W/m² | - |
| 1777852363 | 26.11° C | 32% | 1012.2 hPa | 0 mm | - | 55 W/m² | - |
| 1777852061 | 26.67° C | 31% | 1012.4 hPa | 0 mm | - | 64 W/m² | - |
| 1777851759 | 26.67° C | 30% | 1012.3 hPa | 0 mm | - | 74 W/m² | - |
| 1777851450 | 26.67° C | 30% | 1012.2 hPa | 0 mm | - | 120 W/m² | - |
| 1777851145 | 26.67° C | 31% | 1012.3 hPa | 0 mm | - | 144 W/m² | - |
| 1777850843 | 27.22° C | 31% | 1012.3 hPa | 0 mm | - | 162 W/m² | - |
| 1777850540 | 27.22° C | 29% | 1012.3 hPa | 0 mm | - | 173 W/m² | - |
| 1777850238 | 27.22° C | 30% | 1012.3 hPa | 0 mm | - | 180 W/m² | - |
| 1777849934 | 27.22° C | 30% | 1012.3 hPa | 0 mm | - | 197 W/m² | - |
| 1777849631 | 27.22° C | 29% | 1012.4 hPa | 0 mm | - | 213 W/m² | - |
| 1777849328 | 27.22° C | 30% | 1012.2 hPa | 0 mm | - | 225 W/m² | - |
| 1777849026 | 27.22° C | 29% | 1012.4 hPa | 0 mm | - | 240 W/m² | - |
| 1777848725 | 27.22° C | 29% | 1012.5 hPa | 0 mm | - | 254 W/m² | - |
| 1777848423 | 27.22° C | 30% | 1012.4 hPa | 0 mm | - | 270 W/m² | - |
* Rain latest hour (hover to see other rain measurements)
** Current wind speed in m/s (hover to see current wind gust speed)